When you browse on this site, cookies collect data to enhance your experience and personalize the content and advertising you see.
Visit our Privacy Policy to learn more. By continuing to use the site, you agree to this use of cookies and data.
  • In Österreich
  • Länderverzeichnis
  • Für 7 Tage
  • Wassertemperatur
  • Wetterkarte
  • News
  • Widgets
  • user-avatar
    Anmelden

    Stündliche Wetter Akhaltsikhe

    Heute, 19 Januar, Sonntag

    Zeit Temperatur Niederschläge Wind Luftdruck Luftfeuchtigkeit
    00:00 -9°C° 0 mm 1 m/S 646 mmHg 71%
    01:00 -9°C° 0 mm 1 m/S 646 mmHg 70%
    02:00 -9°C° 0 mm 1 m/S 646 mmHg 68%
    03:00 -9°C° 0 mm 1 m/S 646 mmHg 66%
    04:00 -9°C° 0 mm 1 m/S 646 mmHg 65%
    05:00 -9°C° 0 mm 1 m/S 646 mmHg 65%
    06:00 -9°C° 0 mm 1 m/S 646 mmHg 64%
    07:00 -8°C° 0 mm 1 m/S 646 mmHg 65%
    08:00 -7°C° 0 mm 1 m/S 647 mmHg 67%
    09:00 -6°C° 0 mm 1 m/S 647 mmHg 68%
    10:00 -3°C° 0 mm 1 m/S 648 mmHg 67%
    11:00 -2°C° 0 mm 1 m/S 648 mmHg 67%
    12:00 -1°C° 0 mm 1 m/S 648 mmHg 67%
    13:00 0°C° 0 mm 1 m/S 648 mmHg 68%
    14:00 0°C° 0 mm 1 m/S 648 mmHg 69%
    15:00 0°C° 0 mm 1 m/S 648 mmHg 71%
    16:00 -1°C° 0 mm 1 m/S 648 mmHg 72%
    17:00 -3°C° 0 mm 1 m/S 648 mmHg 72%
    18:00 -4°C° 0 mm 1 m/S 648 mmHg 73%
    19:00 -4°C° 0 mm 1 m/S 648 mmHg 74%
    20:00 -6°C° 0 mm 1 m/S 648 mmHg 75%
    21:00 -6°C° 0 mm 1 m/S 648 mmHg 75%
    22:00 -6°C° 0 mm 1 m/S 649 mmHg 76%
    23:00 -7°C° 0 mm 1 m/S 649 mmHg 77%

    Morgen, 20 Januar, Montag

    Zeit Temperatur Niederschläge Wind Luftdruck Luftfeuchtigkeit
    00:00 -7°C° 0 mm 1 m/S 649 mmHg 78%
    01:00 -7°C° 0 mm 1 m/S 649 mmHg 78%
    02:00 -8°C° 0 mm 1 m/S 649 mmHg 78%
    03:00 -8°C° 0 mm 1 m/S 649 mmHg 79%
    04:00 -8°C° 0 mm 1 m/S 649 mmHg 79%
    05:00 -8°C° 0 mm 1 m/S 649 mmHg 79%
    06:00 -8°C° 0 mm 1 m/S 649 mmHg 79%
    07:00 -8°C° 0 mm 1 m/S 649 mmHg 79%
    08:00 -7°C° 0 mm 1 m/S 650 mmHg 79%
    09:00 -6°C° 0 mm 1 m/S 650 mmHg 78%
    10:00 -3°C° 0 mm 1 m/S 650 mmHg 77%
    11:00 -2°C° 0 mm 1 m/S 651 mmHg 76%
    12:00 0°C° 0 mm 1 m/S 651 mmHg 75%
    13:00 0°C° 0 mm 1 m/S 651 mmHg 76%
    14:00 -1°C° 0 mm 0 m/S 651 mmHg 77%
    15:00 0°C° 0 mm 0 m/S 651 mmHg 77%
    16:00 -2°C° 0 mm 0 m/S 651 mmHg 79%
    17:00 -3°C° 0 mm 0 m/S 650 mmHg 82%
    18:00 -4°C° 0 mm 1 m/S 650 mmHg 84%
    19:00 -4°C° 0 mm 1 m/S 650 mmHg 83%
    20:00 -6°C° 0 mm 1 m/S 650 mmHg 83%
    21:00 -6°C° 0 mm 1 m/S 651 mmHg 82%
    22:00 -7°C° 0 mm 1 m/S 651 mmHg 83%
    23:00 -7°C° 0 mm 1 m/S 651 mmHg 84%

    übermorgen, 21 Januar, Dienstag

    Zeit Temperatur Niederschläge Wind Luftdruck Luftfeuchtigkeit
    00:00 -7°C° 0 mm 1 m/S 650 mmHg 84%
    01:00 -8°C° 0 mm 1 m/S 650 mmHg 85%
    02:00 -8°C° 0 mm 1 m/S 650 mmHg 86%
    03:00 -8°C° 0 mm 1 m/S 650 mmHg 86%
    04:00 -8°C° 0 mm 1 m/S 650 mmHg 87%
    05:00 -9°C° 0 mm 1 m/S 650 mmHg 87%
    06:00 -9°C° 0 mm 1 m/S 650 mmHg 87%
    07:00 -8°C° 0 mm 1 m/S 651 mmHg 87%
    08:00 -7°C° 0 mm 1 m/S 651 mmHg 88%
    09:00 -6°C° 0 mm 1 m/S 652 mmHg 88%
    10:00 -4°C° 0 mm 1 m/S 652 mmHg 87%
    11:00 -3°C° 0 mm 1 m/S 652 mmHg 86%
    12:00 -1°C° 0 mm 1 m/S 652 mmHg 85%
    13:00 -1°C° 0.1 mm 1 m/S 652 mmHg 85%
    14:00 -1°C° 0.1 mm 1 m/S 652 mmHg 85%
    15:00 -1°C° 0.1 mm 1 m/S 652 mmHg 85%
    16:00 -2°C° 0.1 mm 1 m/S 652 mmHg 87%
    17:00 -3°C° 0.1 mm 1 m/S 652 mmHg 90%
    18:00 -4°C° 0.1 mm 1 m/S 651 mmHg 93%
    19:00 -4°C° 0.1 mm 1 m/S 652 mmHg 93%
    20:00 -6°C° 0.1 mm 1 m/S 652 mmHg 93%
    21:00 -6°C° 0.1 mm 1 m/S 652 mmHg 92%
    22:00 -6°C° 0.1 mm 1 m/S 652 mmHg 92%
    23:00 -6°C° 0.1 mm 1 m/S 652 mmHg 92%

    22 Januar, Mittwoch

    Zeit Temperatur Niederschläge Wind Luftdruck Luftfeuchtigkeit
    00:00 -7°C° 0.1 mm 1 m/S 652 mmHg 92%
    01:00 -7°C° 0.1 mm 1 m/S 652 mmHg 92%
    02:00 -7°C° 0.1 mm 1 m/S 652 mmHg 92%
    03:00 -7°C° 0.1 mm 1 m/S 652 mmHg 92%
    04:00 -8°C° 0.1 mm 1 m/S 652 mmHg 92%
    05:00 -8°C° 0.1 mm 1 m/S 651 mmHg 91%
    06:00 -8°C° 0.1 mm 1 m/S 651 mmHg 91%
    07:00 -8°C° 0 mm 1 m/S 651 mmHg 90%
    08:00 -7°C° 0 mm 1 m/S 652 mmHg 89%
    09:00 -7°C° 0 mm 1 m/S 652 mmHg 88%
    10:00 -6°C° 0 mm 1 m/S 652 mmHg 85%
    11:00 -3°C° 0 mm 1 m/S 652 mmHg 83%
    12:00 -2°C° 0 mm 1 m/S 652 mmHg 81%
    13:00 -2°C° 0.1 mm 1 m/S 651 mmHg 82%
    14:00 -1°C° 0.1 mm 1 m/S 651 mmHg 83%
    15:00 -1°C° 0.1 mm 1 m/S 651 mmHg 83%
    16:00 -2°C° 0.1 mm 1 m/S 651 mmHg 86%
    17:00 -3°C° 0.1 mm 1 m/S 650 mmHg 89%
    18:00 -4°C° 0.1 mm 1 m/S 650 mmHg 92%
    19:00 -6°C° 0 mm 1 m/S 650 mmHg 90%
    20:00 -6°C° 0 mm 1 m/S 649 mmHg 89%
    21:00 -7°C° 0 mm 1 m/S 649 mmHg 87%
    22:00 -7°C° 0 mm 1 m/S 648 mmHg 86%
    23:00 -8°C° 0 mm 1 m/S 648 mmHg 84%

    23 Januar, Donnerstag

    Zeit Temperatur Niederschläge Wind Luftdruck Luftfeuchtigkeit
    00:00 -8°C° 0 mm 1 m/S 647 mmHg 83%
    01:00 -8°C° 0 mm 1 m/S 647 mmHg 83%
    02:00 -9°C° 0 mm 1 m/S 646 mmHg 82%
    03:00 -9°C° 0 mm 1 m/S 646 mmHg 82%
    04:00 -9°C° 0 mm 1 m/S 645 mmHg 81%
    05:00 -9°C° 0 mm 1 m/S 644 mmHg 81%
    06:00 -9°C° 0 mm 1 m/S 644 mmHg 81%
    07:00 -9°C° 0 mm 1 m/S 644 mmHg 80%
    08:00 -8°C° 0 mm 1 m/S 644 mmHg 79%
    09:00 -7°C° 0 mm 1 m/S 644 mmHg 79%
    10:00 -6°C° 0 mm 1 m/S 644 mmHg 79%
    11:00 -3°C° 0 mm 1 m/S 644 mmHg 80%
    12:00 -2°C° 0 mm 1 m/S 644 mmHg 80%
    13:00 -2°C° 0.1 mm 1 m/S 644 mmHg 82%
    14:00 -2°C° 0.1 mm 1 m/S 643 mmHg 84%
    15:00 -2°C° 0.1 mm 1 m/S 643 mmHg 85%
    16:00 -3°C° 0.1 mm 1 m/S 643 mmHg 87%
    17:00 -3°C° 0.1 mm 1 m/S 643 mmHg 88%
    18:00 -4°C° 0.1 mm 1 m/S 643 mmHg 90%
    19:00 -6°C° 0.1 mm 1 m/S 643 mmHg 89%
    20:00 -6°C° 0.1 mm 1 m/S 643 mmHg 89%
    21:00 -7°C° 0.1 mm 1 m/S 643 mmHg 89%
    22:00 -7°C° 0.1 mm 1 m/S 643 mmHg 88%
    23:00 -7°C° 0.1 mm 1 m/S 643 mmHg 88%

    24 Januar, Freitag

    Zeit Temperatur Niederschläge Wind Luftdruck Luftfeuchtigkeit
    00:00 -7°C° 0.1 mm 1 m/S 644 mmHg 88%
    01:00 -7°C° 0.8 mm 1 m/S 644 mmHg 89%
    02:00 -7°C° 0.8 mm 1 m/S 644 mmHg 91%
    03:00 -6°C° 0.8 mm 1 m/S 644 mmHg 92%
    04:00 -7°C° 0.8 mm 1 m/S 645 mmHg 93%
    05:00 -7°C° 0.8 mm 1 m/S 645 mmHg 93%
    06:00 -7°C° 0.8 mm 1 m/S 646 mmHg 94%
    07:00 -7°C° 0.3 mm 1 m/S 646 mmHg 93%
    08:00 -7°C° 0.3 mm 1 m/S 647 mmHg 93%
    09:00 -7°C° 0.3 mm 1 m/S 648 mmHg 92%
    10:00 -7°C° 0.5 mm 2 m/S 648 mmHg 88%
    11:00 -7°C° 0.5 mm 3 m/S 648 mmHg 84%
    12:00 -7°C° 0.5 mm 4 m/S 649 mmHg 80%
    13:00 -8°C° 0.2 mm 4 m/S 649 mmHg 80%
    14:00 -8°C° 0.2 mm 4 m/S 649 mmHg 79%
    15:00 -8°C° 0.2 mm 4 m/S 649 mmHg 79%
    16:00 -9°C° 0.1 mm 3 m/S 649 mmHg 83%
    17:00 -9°C° 0.1 mm 2 m/S 649 mmHg 88%
    18:00 -10°C° 0.1 mm 1 m/S 649 mmHg 92%
    19:00 -10°C° 0.2 mm 1 m/S 650 mmHg 93%
    20:00 -9°C° 0.2 mm 1 m/S 650 mmHg 94%
    21:00 -9°C° 0.2 mm 1 m/S 651 mmHg 95%
    22:00 -9°C° 0.1 mm 1 m/S 651 mmHg 95%
    23:00 -9°C° 0.1 mm 1 m/S 651 mmHg 94%
    Mehr zeigen